RH
10 10 11 11 10 10 9 8 8 8 8 7 7 6 6 6 7 7 6 6 6 5 5 5 5 5 5 6 6 5 5 4 3 4 4 5 5 6 9 12 16 18 21 23 24 25 26 36 49 53 53 54 56 55 55 61 67 73 79 82 81 84 85 81 80 81 82 82 82 81 78 79 81 76 69 69 64 56 53 50 47 43 42 44 44 46 49 50
10 10 10 10 9 8 8 8 8 7 7 7 6 6 6 6 7 7 6 6 5 6 6 5 6 5 5 5 6 6 6 5 4 4 5 5 5 6 6 8 11 15 17 19 22 23 27 36 45 48 48 50 51 53 60 63 65 73 78 79 80 81 79 77 77 79 81 81 82 80 77 78 78 77 72 68 63 57 56 53 50 47 45 45 46 46 48 50
10 10 10 10 9 8 7 7 7 7 6 6 6 6 6 6 7 6 6 6 6 7 7 6 6 5 6 5 6 5 6 8 7 8 8 6 6 6 5 5 7 11 14 16 19 21 27 35 42 43 42 46 48 49 59 65 65 69 74 77 77 75 73 74 76 77 79 80 82 84 82 80 79 77 74 69 61 56 57 55 50 48 45 44 46 45 47 50
10 10 10 10 9 8 7 7 6 6 6 6 6 6 7 6 6 6 6 7 8 9 9 8 8 6 6 5 6 5 7 12 13 13 10 7 6 6 5 4 5 8 12 14 17 20 26 33 37 37 38 45 47 45 52 62 64 66 73 77 75 71 72 75 76 76 82 83 85 87 84 82 81 80 76 67 61 58 57 52 47 46 42 42 44 45 47 48
10 10 10 10 10 9 7 7 6 6 6 6 6 6 6 6 7 8 8 10 10 10 9 9 8 7 6 5 6 5 8 14 16 16 12 8 7 7 6 5 4 5 9 14 16 20 26 30 34 38 42 45 45 44 51 57 59 64 72 75 73 69 71 78 80 81 86 87 87 88 87 84 83 83 77 64 59 57 54 50 47 44 39 39 41 44 46 47
9 10 10 10 11 10 9 8 8 7 6 6 6 6 6 7 9 9 10 10 10 10 10 10 9 8 6 5 5 5 9 13 16 17 15 12 10 8 6 5 4 4 7 12 16 20 25 28 34 41 44 44 42 43 52 57 58 64 70 72 73 69 69 78 84 85 89 89 87 86 87 89 87 85 76 63 57 56 52 47 45 42 39 39 40 43 46 47
9 10 10 10 11 11 11 10 9 8 7 7 6 6 8 10 10 10 10 10 10 11 11 11 10 8 6 5 5 7 9 12 15 16 16 15 13 10 7 6 5 4 5 10 15 21 24 27 34 39 40 41 39 38 48 56 57 64 70 73 73 69 70 78 82 84 89 92 88 84 84 86 88 85 76 61 55 56 51 47 45 42 40 40 41 44 46 46
9 9 10 10 10 10 11 10 10 10 9 9 7 8 9 10 10 10 10 10 10 10 11 11 11 9 6 5 6 9 10 13 14 14 14 15 14 11 7 5 5 5 5 8 15 20 23 25 30 34 35 38 36 34 46 57 59 63 68 71 73 70 73 78 79 81 87 90 87 84 85 85 85 83 73 58 54 58 53 49 48 44 41 39 41 45 46 46
9 9 10 10 10 10 10 10 10 10 10 10 9 9 9 10 9 9 9 10 10 10 10 11 11 8 7 6 8 12 12 13 13 12 12 13 14 12 9 7 5 6 5 8 15 18 22 25 28 31 32 33 32 31 41 54 59 60 63 68 72 73 76 80 81 82 82 85 84 82 84 83 80 80 72 58 56 59 55 51 49 45 40 38 41 45 48 47
9 9 9 9 9 10 10 10 11 11 11 10 10 9 9 9 9 9 9 9 8 8 9 10 9 7 6 5 8 15 14 12 12 12 13 13 12 11 10 8 5 6 7 8 14 17 22 26 27 28 29 30 30 32 41 51 56 57 59 66 73 75 79 83 84 83 79 79 81 78 82 82 77 80 75 62 59 59 55 53 49 44 39 37 42 45 48 48
10 9 9 9 9 10 10 10 11 11 11 11 11 10 10 10 9 9 9 8 8 8 9 9 8 6 7 6 8 14 12 9 10 11 13 13 12 10 9 8 6 7 8 8 11 16 22 27 27 27 28 28 29 38 50 53 54 55 58 66 76 78 79 82 84 83 77 77 79 76 80 80 73 74 71 64 61 57 56 57 51 42 37 38 43 45 47 48
11 10 9 9 9 10 10 11 11 11 11 12 11 11 11 10 10 10 9 9 8 9 9 8 7 7 11 10 8 10 9 8 9 10 10 10 11 11 9 8 6 7 9 9 11 15 21 26 27 26 27 26 26 39 52 54 53 54 60 71 78 80 81 82 83 83 79 78 77 74 76 77 71 67 65 62 58 56 58 58 49 38 35 40 43 44 45 46
11 10 10 10 10 10 10 11 11 11 11 12 11 11 11 11 10 11 10 11 11 11 10 10 10 12 16 14 9 8 8 7 8 9 9 8 10 12 11 10 8 9 11 11 11 13 21 25 24 23 27 25 22 33 46 54 55 55 63 72 75 78 82 82 81 82 82 80 78 77 77 79 74 67 65 63 58 57 58 57 47 36 35 40 42 42 44 46
10 10 10 10 10 10 10 11 11 11 11 11 11 12 11 11 11 11 12 12 13 14 14 14 15 16 18 15 11 10 9 7 7 8 8 8 10 11 12 12 9 10 11 11 11 12 19 23 21 21 25 23 21 29 42 51 56 59 66 70 70 76 82 82 81 80 82 82 81 81 81 81 76 69 65 63 60 57 56 55 47 37 34 41 44 43 46 47
10 10 10 9 9 10 10 11 11 11 11 11 11 12 12 11 10 11 11 12 13 15 15 16 18 18 19 16 14 13 11 10 9 7 8 9 10 11 11 11 10 10 11 11 10 12 18 20 19 20 23 24 22 27 41 51 56 62 70 72 71 76 81 81 80 80 81 82 81 83 84 82 76 70 67 64 61 57 55 53 48 41 36 42 48 46 48 50
9 9 9 9 9 10 10 10 10 10 11 11 12 12 11 11 10 10 11 12 13 14 15 17 18 20 21 18 15 13 12 13 12 10 9 10 11 11 11 11 9 10 11 12 12 13 17 18 18 19 22 26 24 26 39 51 58 61 66 71 70 74 80 81 79 79 79 80 81 83 84 84 78 71 70 68 62 56 55 51 47 47 42 43 50 48 49 51
8 9 9 9 10 10 10 10 10 10 11 12 12 12 11 11 9 10 11 13 13 13 15 16 16 20 21 17 15 14 13 13 12 11 11 12 14 13 11 11 10 10 12 13 14 15 16 17 17 19 22 27 29 28 32 42 55 62 64 68 68 71 77 80 80 78 78 79 80 81 81 83 80 73 73 73 63 54 55 51 48 51 48 45 48 49 50 50
7 8 9 9 10 10 10 10 9 10 11 11 13 13 13 12 11 12 12 13 14 14 17 16 14 19 18 14 14 14 13 13 11 12 13 13 15 13 11 12 11 10 12 14 15 15 16 16 17 20 22 26 30 30 29 35 50 61 66 67 69 72 74 76 77 77 78 80 80 81 80 81 81 76 75 76 66 57 55 52 50 52 52 48 47 48 48 47
7 8 9 9 10 11 10 10 9 10 10 10 11 12 13 14 13 14 14 14 15 16 17 15 14 17 15 13 13 13 13 13 14 14 13 14 14 12 12 12 11 12 13 15 16 15 16 15 16 19 21 24 27 28 30 38 47 56 62 63 64 69 70 71 73 74 77 80 80 81 80 82 82 77 78 80 72 64 59 53 51 51 51 51 48 47 47 45
7 8 9 10 10 10 10 10 9 9 10 10 10 11 13 15 14 14 14 14 15 15 15 15 16 17 14 13 13 12 12 14 16 15 13 15 15 13 13 11 11 13 14 15 16 15 15 14 14 16 19 22 24 23 30 41 46 46 51 56 57 61 66 67 71 74 74 77 80 80 81 85 87 81 80 82 76 71 67 58 52 50 50 52 49 47 48 46
7 8 9 10 11 11 10 9 9 9 10 10 10 11 11 13 13 14 15 15 15 14 14 16 17 16 14 13 12 13 14 15 17 16 14 16 16 15 15 13 13 14 15 15 16 15 15 14 13 12 14 18 20 20 26 40 47 41 41 52 58 63 67 67 71 74 74 79 83 82 84 89 88 85 83 84 80 77 74 67 57 50 49 52 52 49 49 47
8 9 10 11 11 11 10 9 9 9 11 11 11 11 11 14 17 18 18 17 17 15 15 17 17 15 14 13 14 16 16 17 17 18 17 16 17 17 16 16 17 17 15 15 15 16 15 15 12 10 11 14 17 17 21 37 47 40 37 50 60 65 71 73 74 75 75 79 84 83 87 89 86 85 85 87 86 81 79 75 67 56 50 55 58 53 49 47
8 9 10 11 11 11 10 10 10 11 13 14 13 14 15 19 21 22 21 20 20 18 17 17 16 16 14 13 16 19 19 19 20 21 20 18 18 19 19 19 19 18 17 16 16 17 16 14 11 10 10 11 14 17 21 37 46 36 34 48 60 64 69 74 76 76 76 78 82 83 86 90 87 85 84 86 88 85 81 79 76 66 55 58 61 55 50 49
9 10 10 10 11 11 10 11 11 12 14 15 15 17 19 21 22 22 22 22 23 21 18 17 16 16 16 14 16 19 20 20 22 23 22 21 20 20 20 21 20 19 18 18 17 16 15 15 12 11 11 10 13 15 20 37 45 36 33 42 56 63 65 69 72 74 78 79 80 82 87 91 89 87 85 85 86 86 83 79 78 73 62 61 63 56 52 52
9 10 10 10 11 11 11 11 11 13 14 16 17 19 20 22 23 22 23 25 27 24 18 15 16 16 15 16 16 18 19 20 22 23 21 21 22 22 20 20 20 20 19 19 19 18 15 15 14 13 12 9 12 13 17 35 42 37 35 38 50 60 63 68 69 72 83 86 81 81 87 92 89 88 87 86 86 85 84 81 78 76 69 64 62 56 53 53
10 10 10 11 12 12 12 11 10 12 14 19 20 21 21 22 23 23 26 32 30 24 17 15 16 15 14 15 15 17 21 23 23 22 20 19 21 22 22 21 22 22 21 21 20 19 15 15 14 13 13 11 11 11 19 35 39 36 38 40 50 60 65 69 66 67 79 81 77 75 80 87 88 88 87 86 86 84 83 83 80 78 75 70 64 56 52 53
10 11 11 12 11 11 12 11 11 12 16 21 21 21 21 21 24 25 30 34 27 19 17 15 15 14 14 14 14 17 21 21 22 22 20 19 19 22 23 24 24 24 23 22 23 21 18 15 14 12 13 13 11 11 19 34 37 37 42 47 54 61 66 66 60 62 67 70 75 75 74 81 85 83 84 86 88 87 82 82 81 78 77 76 69 59 52 52
10 11 11 12 10 11 10 9 11 14 17 20 20 21 21 21 25 26 31 32 21 15 16 15 14 13 12 13 14 17 18 19 24 26 23 21 20 21 23 23 24 25 24 24 25 25 21 19 17 14 13 13 12 11 16 29 37 38 44 49 53 56 60 61 61 62 63 70 81 78 71 78 80 78 82 86 87 87 82 78 78 78 76 77 75 65 56 53
10 11 12 11 10 10 9 8 12 16 19 20 21 22 22 23 25 27 35 34 20 15 16 14 14 13 12 14 14 16 17 19 24 26 26 24 20 22 25 24 23 24 24 25 26 26 23 22 22 18 15 12 13 12 14 25 36 37 42 49 51 55 59 59 62 62 62 72 80 75 71 77 81 78 81 87 87 84 80 76 76 77 76 77 77 71 63 57
11 11 12 12 11 9 8 10 13 16 19 19 20 21 22 25 27 33 40 31 18 16 15 13 14 13 12 14 16 17 19 21 23 23 25 25 22 23 26 25 26 26 26 28 30 28 25 24 24 22 20 17 15 15 15 23 35 37 41 47 49 55 60 60 60 59 64 70 68 64 67 73 80 80 77 80 78 73 75 76 77 78 78 77 77 74 70 62
11 12 12 12 11 9 9 11 13 16 18 20 22 22 25 27 31 40 38 22 16 17 14 13 13 13 13 16 19 20 22 23 23 22 24 26 23 21 23 27 30 30 29 31 32 30 27 25 25 23 22 22 18 18 20 24 35 40 42 46 47 53 60 61 62 60 62 62 53 53 62 68 74 75 71 70 67 66 68 72 74 76 78 77 77 76 73 68
12 12 13 12 11 10 9 11 12 16 19 22 24 24 28 29 31 38 32 18 15 15 13 14 13 14 17 20 22 22 23 25 25 23 26 29 27 22 24 28 31 32 34 34 33 31 29 25 25 23 21 22 23 25 23 23 34 41 44 48 49 53 56 58 63 61 54 48 42 45 57 66 67 64 65 65 63 64 64 65 68 72 74 74 75 76 75 72
13 13 13 12 12 10 9 10 11 15 20 23 24 25 29 31 31 31 24 15 13 12 12 14 15 18 21 22 24 23 24 26 26 24 26 30 30 26 27 29 31 34 36 36 36 35 31 28 26 24 22 22 25 29 24 23 33 41 46 50 51 52 53 54 57 53 45 41 40 44 55 65 63 57 62 64 61 63 63 63 66 67 70 72 72 75 76 75
13 13 14 13 12 10 10 11 11 16 21 22 25 28 29 30 30 26 19 14 13 11 12 14 16 21 23 23 25 25 26 27 27 28 29 32 33 31 31 32 34 37 36 37 41 38 35 35 31 28 28 26 26 32 30 25 32 38 44 49 49 50 52 54 53 47 43 41 42 50 57 60 59 57 60 61 59 62 63 63 65 67 69 70 71 76 77 76
12 13 13 13 13 12 12 13 13 18 22 23 29 32 30 29 27 22 17 15 14 12 12 14 18 23 27 26 27 27 28 28 29 31 32 34 35 34 34 33 34 37 37 38 41 37 36 38 34 29 31 30 29 35 34 27 30 34 38 42 44 46 47 48 49 44 40 38 43 55 58 54 56 58 58 57 57 61 63 63 64 67 69 69 71 77 77 75
10 12 13 14 14 14 15 15 15 19 23 25 31 33 29 27 23 18 16 15 14 12 12 14 18 25 30 32 31 29 29 29 30 32 34 36 37 36 36 33 32 33 34 36 39 37 35 38 37 32 31 32 32 34 33 30 32 34 34 37 40 42 42 44 45 42 38 36 43 57 63 60 59 58 59 58 57 60 63 64 64 65 69 70 70 74 75 73
8 11 14 15 15 15 16 16 17 20 22 24 29 31 28 24 19 17 15 12 11 12 12 15 19 26 30 32 32 29 29 32 32 34 36 38 39 38 36 34 32 31 29 33 38 37 34 36 39 35 32 33 33 33 32 30 33 34 33 36 38 38 40 42 42 41 39 36 42 59 68 68 65 63 63 62 60 62 63 64 66 66 69 71 70 70 70 69
8 9 14 16 16 16 17 16 17 19 20 24 30 30 27 24 20 18 14 9 9 12 14 16 20 24 27 29 30 28 29 31 32 35 37 39 39 39 35 33 35 33 28 28 33 35 35 36 39 36 34 35 32 32 35 33 32 34 32 33 35 36 39 40 39 42 40 37 47 61 66 66 68 69 68 66 64 64 64 65 68 67 68 71 72 71 68 68
8 9 14 16 16 18 18 17 17 19 23 27 30 28 26 24 20 17 14 10 9 13 15 17 21 23 23 26 29 28 29 29 29 33 38 39 38 38 36 33 35 36 31 29 31 35 37 38 41 40 37 36 32 32 36 35 34 35 32 32 32 32 36 38 38 41 39 41 54 64 63 64 70 72 70 69 67 63 65 67 67 67 68 70 74 75 73 72
11 14 16 16 17 18 18 18 21 24 26 28 28 26 25 24 19 16 14 11 10 12 14 16 18 20 21 24 28 28 29 30 29 30 34 37 37 38 38 35 35 35 33 32 32 35 38 38 41 43 40 36 34 32 36 37 37 37 35 34 32 30 33 34 35 37 37 41 57 67 66 64 68 69 69 69 68 65 64 66 66 67 67 68 72 75 76 75
16 18 19 17 18 18 18 21 25 26 26 27 27 24 23 23 20 16 14 13 11 11 12 14 16 17 19 23 25 26 28 30 29 28 28 31 34 37 37 35 35 35 33 33 33 34 37 37 41 45 42 37 35 33 35 38 40 39 37 37 36 33 32 31 34 36 33 35 47 60 65 64 65 67 67 67 68 68 66 66 67 67 66 68 71 75 79 79
20 23 22 20 21 21 20 23 24 22 23 25 25 24 23 22 20 17 15 14 12 11 12 15 16 16 18 21 22 24 26 28 29 28 25 25 28 31 32 32 34 33 33 34 35 35 37 38 41 45 43 39 36 36 38 41 41 38 38 38 36 34 33 32 33 33 30 31 36 48 62 65 65 69 70 68 67 68 68 68 69 69 67 68 70 71 74 76
22 24 24 24 24 23 22 25 24 23 24 23 23 25 24 20 18 16 15 14 14 13 14 16 17 16 17 19 20 22 22 24 27 28 25 25 25 26 29 31 32 33 33 35 35 35 36 39 41 44 45 43 40 37 40 43 42 40 41 38 35 37 36 32 29 31 35 37 38 50 65 67 66 71 73 71 68 67 69 71 71 72 70 70 70 68 67 67
24 22 24 26 27 25 23 26 28 27 27 25 24 25 23 20 19 18 16 15 15 15 16 18 18 17 17 18 19 21 22 23 26 28 27 27 27 26 28 30 30 31 33 34 34 33 34 38 43 46 49 53 54 48 44 46 46 43 43 41 39 40 37 32 31 34 42 46 43 51 64 67 69 74 75 74 72 69 71 75 74 74 74 74 73 73 71 67
28 25 26 28 29 27 23 24 28 29 29 27 26 24 23 21 21 21 20 18 15 15 15 16 17 17 17 18 19 21 22 22 25 28 29 30 29 27 28 29 28 28 31 34 33 30 29 35 41 45 48 57 66 61 51 50 51 45 43 44 44 42 39 37 39 42 49 55 56 60 67 70 73 74 73 76 78 75 75 79 77 74 73 75 76 76 77 74
31 31 31 31 32 31 26 26 28 28 27 27 26 24 23 22 21 21 21 18 14 13 14 15 16 17 17 18 20 23 24 24 24 28 30 31 30 28 27 28 26 24 26 29 29 29 30 31 35 40 45 50 58 59 54 53 53 48 46 48 49 48 45 44 47 50 53 57 62 68 71 72 72 69 69 74 78 78 77 78 77 73 70 72 75 76 77 78
35 35 34 38 41 39 33 32 33 31 29 29 27 23 23 23 23 22 19 17 15 13 12 14 15 16 17 19 20 22 25 27 26 27 29 31 31 28 26 27 26 24 25 24 24 28 30 30 32 35 38 41 46 51 53 54 54 52 52 54 53 52 50 49 51 54 53 55 64 71 69 68 69 65 64 68 72 75 75 75 76 75 72 73 75 76 78 79
36 37 38 43 47 45 39 36 37 37 35 33 29 24 23 24 25 24 20 17 18 16 14 15 15 16 17 18 21 24 25 27 28 28 29 30 30 29 28 29 27 26 26 27 27 28 29 30 31 30 31 36 39 42 48 53 54 52 53 56 55 53 52 53 56 57 55 59 68 72 68 66 68 67 64 65 70 73 74 74 74 74 74 75 76 77 78 79
40 42 42 45 49 45 40 37 37 38 39 37 32 27 25 26 29 29 23 20 20 19 18 19 19 19 20 22 25 27 26 27 28 29 29 29 27 27 29 30 27 25 27 29 31 30 31 33 31 28 29 33 35 38 42 49 55 54 53 56 57 54 53 55 59 61 61 65 68 70 70 68 68 69 68 68 70 70 71 72 72 71 72 75 77 76 75 80
45 47 46 47 51 47 42 42 40 41 42 39 33 29 26 27 31 32 28 25 24 23 22 22 21 20 21 24 26 26 26 29 30 29 28 26 24 25 27 27 25 25 26 28 29 29 31 36 36 32 31 31 34 38 40 46 56 58 56 58 59 57 56 58 61 64 66 66 66 67 71 70 68 69 71 72 70 67 68 71 71 69 69 73 76 76 77 82
42 45 45 50 55 51 47 46 44 44 45 40 36 35 31 29 30 30 29 27 27 28 26 25 25 23 21 23 23 22 24 27 25 23 23 22 19 20 22 22 22 22 22 23 25 26 29 36 39 37 35 34 35 39 43 46 52 59 61 62 63 62 61 60 62 64 65 66 65 65 68 70 68 68 71 72 70 67 67 69 69 69 70 73 75 75 75 81
35 37 38 44 52 53 50 50 48 46 46 42 41 41 35 31 31 32 31 29 28 29 28 26 26 26 25 27 24 21 22 24 21 19 19 19 17 16 16 17 17 19 20 20 23 27 29 33 38 38 37 39 39 41 44 45 51 64 68 65 65 66 63 60 60 61 62 63 63 65 66 66 66 67 69 70 69 67 66 67 67 68 70 73 74 73 74 79